Wind_Speed
5 5 5 5 6 6 7 7 8 8 8 7 6 5 3 2 2 3 4 5 6 7 8 8 7 6 5 4 3 3 3 3 4 3 4 5 5 6 6 7 7 6 6
6 6 6 6 6 7 7 8 9 9 9 8 7 6 5 4 3 3 3 3 4 5 5 6 6 6 5 4 3 2 1 2 2 2 2 3 4 4 4 5 5 5 5
6 6 6 6 6 6 7 8 9 9 9 8 8 7 7 6 6 5 5 5 4 4 4 4 5 5 5 4 3 2 1 1 1 1 1 1 2 3 3 3 4 4 5
6 6 6 6 7 7 7 8 9 9 9 9 9 9 9 8 8 8 8 7 7 6 5 4 4 4 5 4 4 3 2 2 2 1 1 1 0 1 1 2 3 4 5
6 6 6 6 7 7 7 8 8 9 9 10 10 10 10 11 11 11 11 10 10 10 9 7 6 5 5 5 4 3 3 3 3 3 3 3 2 2 2 3 3 4 5
7 7 7 6 7 7 8 8 8 9 10 11 12 12 12 13 13 13 13 13 13 13 12 11 10 9 8 7 6 5 4 4 4 4 4 4 4 4 4 5 5 5 6
8 8 7 7 8 9 9 10 11 12 13 14 14 15 15 15 16 16 16 16 16 16 15 14 14 13 11 10 10 9 8 7 7 6 6 6 6 7 7 7 7 7 7
10 10 10 10 11 11 12 13 14 15 16 17 17 18 18 19 19 19 19 19 19 19 18 18 17 16 15 14 14 13 12 11 11 10 9 9 9 9 9 10 9 9 9
11 12 12 13 14 16 17 18 19 19 20 21 21 21 22 23 23 23 23 23 23 22 21 21 20 20 19 18 18 17 17 16 15 14 14 13 12 12 12 12 12 12 12
14 15 16 17 19 20 20 21 22 24 24 25 26 26 26 27 27 28 28 27 26 25 24 23 23 23 22 22 21 21 20 20 20 19 18 17 17 16 15 15 15 15 15
17 18 19 20 21 22 23 25 26 27 28 29 30 30 31 30 30 31 31 31 30 28 27 26 25 24 24 24 24 24 23 22 22 22 22 21 21 20 19 19 18 17 16
21 22 23 23 24 25 27 29 29 30 30 31 32 33 33 34 34 34 33 33 33 31 30 29 27 26 25 25 25 25 24 24 24 24 24 23 24 24 23 22 21 19 19
24 25 26 27 28 28 29 30 31 31 31 32 34 36 36 36 37 37 36 36 36 34 33 31 30 28 27 26 26 24 23 22 23 23 23 23 24 25 25 25 24 23 22
26 27 28 29 29 30 31 31 31 32 33 33 32 34 37 38 38 39 39 39 38 37 35 34 32 31 29 28 27 25 23 22 22 22 22 22 22 24 25 25 26 25 25
29 29 30 31 31 32 32 33 33 33 33 35 35 35 36 38 39 39 39 41 40 39 38 36 35 33 31 29 27 25 24 23 22 22 22 21 21 23 24 24 26 25 25
30 31 32 33 34 34 35 36 35 35 34 35 36 36 37 38 39 39 40 41 42 41 40 38 37 35 32 31 28 26 24 24 24 23 22 21 21 22 23 24 25 25 25
31 33 34 36 36 37 38 37 37 36 36 36 36 37 39 39 39 40 42 42 43 43 41 40 38 37 35 32 30 28 26 24 24 23 23 21 21 21 22 23 24 24 24
34 35 37 38 39 40 40 39 38 36 35 34 35 36 35 35 37 40 42 42 43 43 42 41 39 38 35 33 31 29 28 26 25 25 23 22 21 20 21 22 22 22 23
35 38 39 40 41 42 40 38 38 35 34 34 35 35 33 33 34 37 39 40 41 42 42 41 40 38 36 34 32 30 29 27 26 26 24 23 21 20 20 20 21 21 21
37 39 40 42 42 41 40 39 38 36 36 36 36 35 34 33 34 35 37 38 40 41 41 40 40 38 36 34 33 31 30 28 27 26 25 24 21 20 19 19 20 20 20
38 39 39 40 40 39 40 40 39 38 38 38 37 36 35 34 34 34 35 36 38 39 39 38 38 37 35 34 33 31 30 29 28 26 26 25 23 21 20 19 19 18 18
37 37 37 37 38 39 40 41 41 41 41 40 39 38 37 36 34 32 32 34 35 37 38 39 37 37 35 34 34 33 30 29 28 28 27 26 24 22 21 19 18 17 16
34 35 36 38 39 40 41 41 42 42 43 43 42 41 40 38 36 33 32 32 34 36 37 37 38 36 35 35 34 33 31 30 29 29 28 27 25 24 22 20 18 16 15
35 37 38 40 42 43 44 44 44 45 45 45 44 43 42 40 38 36 34 33 33 35 36 38 38 36 35 35 35 33 33 31 30 30 29 28 27 25 24 22 20 17 16
37 39 41 42 44 45 46 46 47 47 47 47 47 46 44 43 41 39 38 36 34 34 36 37 37 36 36 36 35 34 34 33 33 31 31 30 29 28 26 24 22 19 17
38 40 42 43 44 46 47 48 48 49 49 49 49 49 47 46 44 43 42 41 40 39 38 39 39 37 37 37 37 36 36 36 35 34 33 32 31 30 28 26 24 21 18
Wind_Direction
312 311 311 314 313 310 307 305 304 304 305 308 310 313 317 334 4 25 37 40 41 41 42 42 42 41 36 28 28 37 49 58 64 67 74 81 89 96 104 113 117 115 109
311 312 315 319 319 315 310 306 303 301 300 300 300 300 296 294 301 318 337 355 9 20 26 30 31 33 34 27 16 13 26 47 59 63 72 83 90 100 108 115 119 122 119
309 313 319 329 327 321 312 306 302 299 296 295 294 292 288 287 289 294 302 312 322 333 348 2 10 16 22 24 19 4 347 335 348 23 49 73 91 100 116 127 131 132 136
312 315 322 328 326 320 311 305 301 296 294 293 293 291 289 289 289 289 291 294 296 298 303 314 331 344 354 2 8 3 344 308 293 289 289 319 340 150 151 166 173 164 160
313 317 322 325 323 318 311 304 300 296 294 294 293 292 291 291 291 290 289 288 289 288 287 287 292 303 316 323 329 336 336 318 292 279 272 268 262 244 224 212 205 197 188
307 308 314 316 315 310 305 301 298 295 294 294 295 295 294 294 292 291 289 286 284 282 280 278 278 279 285 291 295 297 300 299 290 278 269 260 253 248 238 229 224 214 205
301 302 306 307 305 302 299 298 296 295 295 296 297 296 295 293 292 290 288 286 282 279 275 273 272 270 270 272 274 276 279 279 277 275 268 262 254 249 244 236 230 226 222
293 296 299 299 298 297 297 296 297 296 296 296 296 295 294 293 292 290 288 285 282 278 274 271 269 267 266 265 265 266 267 268 267 265 263 259 254 250 246 242 235 230 225
289 293 294 295 295 296 297 296 296 295 294 294 294 295 294 293 291 289 286 283 280 278 275 271 268 265 264 263 262 261 261 262 262 261 261 258 254 251 247 243 238 233 228
288 291 292 293 294 294 295 295 295 294 294 293 293 293 292 291 290 288 285 283 280 277 275 272 268 265 263 262 261 259 259 259 258 258 258 257 254 250 248 246 244 236 232
287 290 291 291 293 295 297 297 295 293 293 293 292 291 290 288 286 285 283 281 278 276 273 271 268 265 264 262 261 259 257 256 257 256 256 255 252 250 249 248 248 245 237
289 290 291 290 292 295 296 296 294 292 292 293 291 289 288 285 283 281 280 277 275 273 271 270 267 265 264 262 261 261 259 255 254 254 256 253 251 250 248 248 248 247 242
290 290 291 292 293 295 297 296 294 294 294 295 291 287 285 285 282 279 276 274 273 271 269 267 266 265 263 261 261 262 259 255 254 254 255 255 253 249 246 247 246 247 244
288 288 288 291 293 295 296 294 295 295 293 294 295 289 284 283 281 278 274 271 270 268 266 265 265 264 262 261 259 259 259 256 255 255 258 257 254 251 248 248 247 246 245
287 286 287 289 291 293 294 294 293 294 292 291 290 290 289 287 281 277 274 270 266 265 264 262 263 262 260 259 259 258 257 253 253 254 254 252 250 249 249 248 247 246 246
282 283 284 286 289 292 293 292 291 293 293 291 292 290 289 287 282 275 273 269 264 262 261 260 261 260 259 258 258 257 255 252 252 253 254 252 249 250 249 247 246 247 248
279 281 283 285 288 290 292 293 293 293 293 291 291 291 291 287 283 277 272 268 262 259 258 258 259 258 257 255 255 254 252 252 252 255 253 251 250 251 249 247 246 246 245
278 281 283 286 288 290 291 292 292 293 292 292 292 293 293 289 285 279 272 267 262 257 255 255 257 257 254 253 252 252 250 248 250 251 250 248 248 248 247 244 243 243 243
281 283 285 287 288 288 289 291 291 293 292 293 294 293 294 289 285 279 271 264 260 256 255 254 255 255 254 252 251 249 247 246 246 247 247 244 246 246 243 240 239 241 242
285 287 287 288 289 288 289 291 291 291 291 291 293 294 294 291 289 283 271 262 258 255 254 254 254 253 252 250 249 248 247 245 242 243 242 242 243 241 238 236 236 238 241
288 290 290 290 289 289 289 289 289 288 288 289 291 293 292 290 288 286 273 261 256 252 250 252 251 249 248 246 246 245 245 243 242 238 238 238 237 236 235 233 234 235 238
290 291 291 293 291 290 289 288 287 287 287 287 288 288 288 288 287 285 275 262 257 252 250 249 249 246 244 243 243 243 242 241 239 236 235 234 233 231 230 230 230 233 237
293 293 292 292 292 291 291 289 288 287 286 286 286 285 285 286 285 282 275 265 258 253 250 247 247 244 241 241 240 240 239 238 237 235 233 232 230 228 228 228 228 230 235
296 295 294 293 293 292 291 290 288 287 286 285 284 283 282 281 279 277 271 265 259 254 250 246 245 242 240 239 238 237 237 236 235 233 231 229 228 228 228 227 227 229 234
298 297 296 296 295 294 293 291 290 288 287 286 284 283 281 278 274 270 267 264 259 254 251 246 244 242 240 239 237 236 235 234 233 231 230 228 228 228 227 226 226 229 234
299 298 297 296 295 293 292 290 289 288 286 285 284 282 280 276 272 268 264 260 256 252 250 249 246 244 241 238 236 235 234 232 230 229 229 227 227 227 226 226 227 230 234
Height
5924 5924 5923 5923 5922 5921 5920 5920 5920 5919 5919 5918 5917 5915 5914 5913 5912 5911 5909 5909 5908 5907 5907 5906 5905 5904 5904 5903 5902 5901 5901 5900 5899 5899 5898 5898 5897 5897 5897 5897 5897 5897 5898
5923 5922 5922 5921 5921 5920 5920 5919 5919 5918 5918 5917 5916 5915 5914 5913 5912 5911 5910 5909 5908 5907 5907 5906 5905 5905 5904 5903 5903 5902 5901 5900 5900 5899 5899 5898 5898 5898 5898 5898 5898 5898 5898
5922 5921 5920 5920 5920 5919 5919 5918 5918 5917 5917 5916 5915 5914 5913 5912 5911 5910 5909 5908 5908 5907 5906 5906 5905 5905 5904 5903 5903 5902 5901 5901 5900 5899 5899 5898 5898 5898 5898 5898 5898 5899 5899
5920 5919 5919 5918 5918 5918 5918 5917 5917 5916 5915 5914 5914 5913 5912 5911 5910 5909 5909 5908 5907 5906 5906 5905 5904 5904 5904 5903 5902 5902 5901 5901 5900 5899 5899 5898 5898 5898 5898 5899 5899 5899 5900
5918 5917 5917 5917 5917 5916 5916 5916 5915 5914 5914 5913 5912 5911 5910 5910 5909 5908 5908 5907 5906 5905 5905 5904 5903 5903 5903 5902 5901 5901 5901 5900 5900 5899 5899 5898 5898 5898 5898 5899 5899 5899 5900
5916 5916 5915 5915 5915 5915 5914 5914 5913 5912 5912 5911 5910 5909 5908 5908 5907 5906 5906 5905 5904 5904 5903 5903 5902 5902 5901 5901 5900 5900 5900 5899 5899 5899 5898 5898 5898 5898 5898 5898 5899 5899 5900
5915 5914 5914 5913 5913 5913 5912 5912 5911 5910 5909 5909 5908 5907 5906 5905 5904 5904 5903 5902 5902 5901 5901 5900 5900 5899 5899 5899 5898 5898 5898 5898 5898 5898 5898 5897 5897 5897 5897 5897 5898 5898 5899
5913 5913 5912 5912 5912 5911 5910 5910 5909 5908 5907 5906 5905 5904 5903 5902 5901 5900 5900 5899 5899 5898 5898 5897 5897 5896 5896 5896 5896 5896 5896 5896 5896 5896 5896 5896 5896 5896 5896 5896 5896 5897 5897
5911 5911 5910 5910 5909 5908 5908 5907 5906 5905 5903 5902 5901 5900 5899 5899 5898 5897 5896 5895 5894 5894 5894 5893 5893 5892 5892 5892 5892 5892 5893 5893 5893 5893 5893 5894 5894 5894 5894 5894 5894 5895 5895
5909 5909 5908 5907 5906 5905 5904 5903 5902 5901 5900 5898 5897 5896 5895 5894 5893 5892 5891 5890 5889 5889 5889 5889 5888 5888 5888 5888 5888 5888 5888 5888 5889 5889 5890 5891 5891 5892 5892 5892 5892 5892 5893
5907 5906 5905 5904 5903 5902 5901 5899 5898 5896 5895 5894 5892 5891 5889 5888 5887 5886 5885 5884 5884 5884 5883 5883 5883 5883 5883 5883 5883 5883 5883 5883 5884 5884 5885 5886 5887 5888 5888 5888 5889 5889 5890
5905 5903 5902 5901 5900 5898 5897 5895 5893 5891 5890 5888 5886 5885 5883 5882 5880 5879 5878 5878 5877 5877 5877 5877 5877 5877 5877 5877 5877 5877 5877 5878 5878 5879 5880 5881 5882 5883 5884 5884 5885 5886 5886
5901 5900 5898 5897 5896 5894 5892 5890 5888 5886 5884 5881 5879 5877 5876 5875 5873 5872 5871 5870 5870 5870 5870 5871 5871 5871 5871 5871 5871 5872 5872 5872 5873 5874 5874 5875 5876 5877 5879 5880 5881 5881 5883
5897 5895 5894 5892 5891 5889 5887 5885 5882 5880 5877 5875 5872 5870 5868 5866 5865 5863 5863 5862 5862 5862 5863 5864 5864 5864 5864 5864 5865 5866 5866 5867 5868 5868 5869 5870 5870 5872 5873 5874 5876 5877 5878
5892 5890 5888 5886 5885 5883 5881 5878 5876 5873 5870 5868 5865 5862 5860 5858 5856 5855 5854 5853 5853 5854 5855 5856 5857 5857 5858 5858 5858 5859 5860 5861 5862 5863 5864 5864 5865 5866 5868 5869 5870 5871 5873
5886 5884 5882 5880 5878 5876 5874 5871 5869 5866 5863 5860 5857 5854 5851 5848 5846 5845 5844 5844 5844 5845 5846 5848 5849 5850 5851 5851 5852 5853 5854 5855 5857 5857 5858 5859 5860 5861 5862 5863 5864 5866 5868
5880 5878 5875 5873 5871 5869 5866 5863 5860 5857 5854 5851 5848 5845 5842 5838 5836 5834 5833 5834 5835 5836 5837 5839 5841 5842 5843 5844 5845 5847 5848 5849 5850 5852 5853 5854 5855 5856 5857 5858 5859 5861 5862
5873 5871 5868 5866 5863 5860 5858 5854 5851 5848 5846 5843 5840 5836 5832 5828 5825 5824 5823 5824 5825 5826 5828 5830 5832 5834 5835 5836 5838 5839 5841 5843 5844 5846 5847 5848 5849 5850 5851 5853 5854 5856 5858
5866 5863 5861 5858 5855 5852 5849 5846 5843 5840 5837 5835 5831 5827 5824 5820 5816 5814 5813 5813 5815 5817 5819 5822 5824 5825 5827 5829 5830 5832 5834 5836 5838 5840 5841 5842 5843 5845 5846 5848 5849 5851 5853
5858 5855 5852 5849 5845 5842 5839 5837 5834 5832 5829 5826 5823 5819 5816 5812 5809 5805 5803 5803 5804 5807 5810 5813 5815 5817 5819 5821 5823 5825 5827 5829 5831 5833 5835 5837 5838 5840 5841 5843 5845 5847 5849
5850 5846 5843 5839 5836 5833 5830 5827 5824 5822 5819 5817 5814 5811 5807 5804 5801 5797 5794 5794 5795 5797 5800 5803 5806 5808 5811 5813 5815 5818 5820 5822 5824 5827 5829 5831 5833 5835 5837 5838 5840 5842 5844
5841 5837 5834 5830 5826 5823 5820 5817 5814 5811 5809 5806 5804 5802 5799 5796 5793 5789 5787 5786 5787 5788 5791 5795 5797 5799 5801 5804 5807 5810 5813 5816 5818 5820 5823 5825 5828 5830 5832 5834 5836 5838 5840
5832 5829 5825 5821 5817 5813 5809 5806 5803 5801 5798 5796 5793 5791 5789 5786 5783 5781 5779 5779 5779 5780 5783 5785 5788 5790 5793 5795 5798 5802 5806 5808 5811 5815 5817 5819 5822 5825 5827 5829 5832 5834 5836
5824 5820 5816 5811 5807 5803 5799 5795 5792 5789 5786 5784 5781 5779 5778 5776 5774 5772 5771 5771 5771 5773 5774 5776 5778 5780 5783 5786 5790 5793 5798 5801 5805 5808 5811 5813 5816 5819 5822 5824 5827 5830 5832
5815 5810 5806 5801 5796 5792 5787 5783 5780 5776 5773 5771 5768 5767 5766 5764 5763 5762 5762 5762 5763 5764 5765 5766 5768 5770 5773 5777 5780 5784 5789 5793 5796 5800 5803 5807 5810 5813 5816 5819 5822 5825 5827
5806 5801 5796 5791 5786 5781 5776 5772 5768 5764 5761 5758 5755 5753 5752 5752 5751 5751 5751 5751 5752 5754 5755 5756 5758 5760 5763 5767 5771 5775 5780 5784 5788 5792 5796 5800 5803 5807 5810 5814 5817 5820 5822